Regional Weather Roundup
Issued by NWS Sioux Falls, SD

Home | Current Version | Previous Version | Text Only | Print | Product List | Glossary On
Versions: 1 2 3 4 5 6 7 8 9 10 11 12 13 14 15 16 17 18 19 20 21 22 23 24 25 26 27 28 29 30 31 32 33 34 35 36 37 38 39 40 41 42 43 44 45 46 47 48 49 50
000
ASUS43 KFSD 200010
RWRFSD

WEATHER ROUNDUP FOR SE SOUTH DAKOTA/SW MINNESOTA/NW IOWA
NATIONAL WEATHER SERVICE SIOUX FALLS SD
600 PM CST FRI DEC 19 2014

NOTE: "FAIR" INDICATES FEW OR NO CLOUDS BELOW 12,000 FEET WITH NO
SIGNIFICANT WEATHER AND OR OBSTRUCTIONS TO VISIBILITY.


SDZ038>040-050-052>070-200100-
SOUTHEAST SOUTH DAKOTA

CITY           SKY/WX    TMP DP  RH WIND       PRES   REMARKS
CHAMBERLAIN    MOCLDY    25  23  90 SE9       30.00S WCI  16
6HR MIN TEMP:  23; 6HR MAX TEMP:  28;

HURON          CLOUDY    30  28  92 S10       30.04S WCI  21
6HR MIN TEMP:  29; 6HR MAX TEMP:  30;

MADISON        CLOUDY    27  27 100 S15       30.06R FOG     WCI  15
MITCHELL       CLOUDY    30  29  96 S13       30.06S WCI  20
6HR MIN TEMP:  30; 6HR MAX TEMP:  31;

SIOUX FALLS    CLOUDY    31  28  89 S12       30.09S WCI  22
6HR MIN TEMP:  30; 6HR MAX TEMP:  31;

WINNER         FAIR      29  23  78 SE8       29.98S WCI  21
YANKTON        CLOUDY    34  28  80 S14       30.09S WCI  24
$$

MNZ071-072-080-081-089-090-097-098-200100-
SOUTHWEST MINNESOTA

CITY           SKY/WX    TMP DP  RH WIND       PRES   REMARKS
FAIRMONT       CLOUDY    30  25  80 S12       30.15S WCI  21
JACKSON        CLOUDY    32  28  86 S10       30.13S WCI  24
LUVERNE        CLOUDY    32  30  93 S13       30.10F FOG     WCI  22
MARSHALL       CLOUDY    30  27  86 SW14      30.11R WCI  20
6HR MIN TEMP:  30; 6HR MAX TEMP:  30;

MONTEVIDEO     CLOUDY    30  30 100 SW6       30.11S FOG     WCI  24
PIPESTONE      CLOUDY    28  28 100 SW6       30.07S FOG     WCI  22
REDWOOD FALLS  CLOUDY    33  29  85 S9        30.13R WCI  25
TRACY          CLOUDY    32  29  90 S14       30.11R WCI  22
WINDOM         CLOUDY    32  28  86 S7        30.12R WCI  26
WORTHINGTON    CLOUDY    30  27  86 S13G20    30.11S WCI  20
$$

IAZ001>003-012>014-020>022-031-032-NEZ013-014-SDZ071-200100-
NORTHWEST IOWA

CITY           SKY/WX    TMP DP  RH WIND       PRES   REMARKS
CHEROKEE       CLOUDY    32  29  90 S12       30.14S WCI  23
DENISON        CLOUDY    32  30  93 S10       30.13F WCI  24
ESTHERVILLE    CLOUDY    31  28  89 S12       30.14S FOG     WCI  22
LE MARS        CLOUDY    32  28  86 S9        30.12F WCI  24
ORANGE CITY    CLOUDY    32  27  80 S10       30.10F WCI  24
SHELDON        CLOUDY    32  30  93 S10G18    30.11S WCI  24
SIOUX CITY     CLOUDY    34  28  79 S10       30.13F WCI  26
6HR MIN TEMP:  34; 6HR MAX TEMP:  35;

SPENCER        CLOUDY    33  27  78 S10       30.13F WCI  25
6HR MIN TEMP:  33; 6HR MAX TEMP:  34;

STORM LAKE     CLOUDY    32  30  93 S10G20    30.14F WCI  24
$$

ABBREVIATIONS USED IN REMARKS
   TC - TEMPERATURE IN CELSIUS
  WCI - WIND CHILL INDEX
   HX - HEAT INDEX
  VSB - VISIBILITY




USA.gov is the U.S. government's official web portal to all federal, state and local government web resources and services.